Location: Armidale
(30.5016°S, 151.6662°E)
Time: 02:18:22
(UTC+10:00)

Hubble Space Telescope - Pass Details

Date: 13 August 2020
Orbit: 536 x 540 km, 28.5° (Epoch: 28 September)

Event Time Altitude Azimuth Distance (km) Brightness Sun altitude
Rises 19:23:23 0° 271° (W) 2,685 5.7 -25.5°
Reaches altitude 10° 19:25:56 10° 284° (WNW) 1,790 4.4 -26.0°
Enters shadow 19:29:10 25° 335° (NNW) 1,109 2.6 -26.7°
